This is the latest recevied weather packets stored in our database for station/object KB4MLW-13. If no packets are shown the sender has not sent any weather packets the latest 10 day(s).
| Time | Temp. | Humidity | Pressure | Rain* | Wind** | Luminosity | Snow |
|---|---|---|---|---|---|---|---|
| 1788134878 | 29.44° C | 74% | 1000.1 hPa | 0 mm | - | - | - |
| 1788134818 | 30° C | 75% | 1000.1 hPa | 0 mm | - | - | - |
| 1788134729 | 30° C | 73% | 1000.1 hPa | 0 mm | - | - | - |
| 1788134668 | 30° C | 74% | 1000.2 hPa | 0 mm | - | - | - |
| 1788134608 | 30° C | 74% | 1000.2 hPa | 0 mm | - | - | - |
| 1788134548 | 30° C | 73% | 1000.1 hPa | 0 mm | - | - | - |
| 1788134459 | 30° C | 74% | 1000.2 hPa | 0 mm | - | - | - |
| 1788134398 | 30° C | 73% | 1000.1 hPa | 0 mm | - | - | - |
| 1788134337 | 30° C | 73% | 1000.1 hPa | 0 mm | - | - | - |
| 1788134278 | 30° C | 72% | 1000.3 hPa | 0 mm | - | - | - |
| 1788134218 | 30.56° C | 72% | 1000.1 hPa | 0 mm | - | - | - |
| 1788134157 | 30.56° C | 73% | 1000.1 hPa | 0 mm | - | - | - |
| 1788134098 | 30.56° C | 71% | 1000 hPa | 0 mm | - | - | - |
| 1788134038 | 30.56° C | 70% | 1000.1 hPa | 0 mm | - | - | - |
| 1788133978 | 30.56° C | 70% | 1000.1 hPa | 0 mm | - | - | - |
| 1788133918 | 30.56° C | 69% | 1000.2 hPa | 0 mm | - | - | - |
| 1788133828 | 30.56° C | 69% | 1000.1 hPa | 0 mm | - | - | - |
| 1788133768 | 30.56° C | 70% | 1000 hPa | 0 mm | - | - | - |
| 1788133708 | 30.56° C | 69% | 999.9 hPa | 0 mm | - | - | - |
| 1788133619 | 30.56° C | 69% | 1000.3 hPa | 0 mm | - | - | - |
| 1788133559 | 30.56° C | 70% | 1000.2 hPa | 0 mm | - | - | - |
| 1788133498 | 30.56° C | 73% | 1000.2 hPa | 0 mm | - | - | - |
| 1788133409 | 30.56° C | 71% | 1000.1 hPa | 0 mm | - | - | - |
| 1788133348 | 30.56° C | 68% | 1000 hPa | 0 mm | - | - | - |
| 1788133288 | 30.56° C | 69% | 1000.2 hPa | 0 mm | - | - | - |
* Rain latest hour (hover to see other rain measurements)
** Current wind speed in m/s (hover to see current wind gust speed)